Tracking 19575 objects as of 20-Feb-2019
HD Live streaming from Space Station
objects crossing your sky now

COSMOS 823

Track COSMOS 823 now!
10-day predictions
COSMOS 823 is classified as:


NORAD ID: 8873
Int'l Code: 1976-051A
Perigee: 977.4 km
Apogee: 1,012.4 km
Inclination: 83.0 °
Period: 104.9 minutes
Semi major axis: 7365 km
RCS: 1.7893 m2 (large)
Launch date: June 2, 1976
Source: Commonwealth of Independent States (former USSR) (CIS)
Launch site: PLESETSK MISSILE AND SPACE COMPLEX (PKMTR)
aabbcc
Your satellite tracking list
Your tracking list is empty




NASA's NSSDC Master Catalog

Two Line Element Set (TLE):
1  8873U 76051A   19051.22996965  .00000053  00000-0  40264-4 0  9997
2  8873  82.9672 305.1113 0023782  97.9030  17.1634 13.73301334140405
Source of the keplerian elements: AFSPC